Location: McMath-Hulbert Observatory
(42.6964°N, 83.3187°W)
Time: 20:11:25
(UTC-04:00)

Daily predictions for brighter satellites

Satellite Brightness Start Highest point End
(mag) Time Altitude Azimuth Time Altitude Azimuth Time Altitude Azimuth
Cosmos 1464 Rocket 4.5 19:41:39 10° SSE 19:47:20 38° E 19:52:59 10° NNE
Cosmos 1437 2.7 19:46:57 10° N 19:50:13 65° E 19:53:27 10° SSE
TIMED 4.5 19:51:47 10° NNW 19:56:11 77° ENE 20:00:32 10° SSE
Cosmos 2333 Rocket 3.1 19:54:07 10° SW 19:59:45 54° WNW 20:05:26 10° NNE
Spot 2 Rocket 3.8 19:57:57 10° SE 20:02:45 47° ENE 20:07:35 10° N
Cosmos 2233 Rocket 4.3 19:56:39 10° SSW 20:02:56 75° W 20:09:18 10° N
Cosmos 1076 Rocket 3.9 19:59:01 10° N 20:03:09 42° ENE 20:07:16 10° SSE
NOSS 3-2 (C) 3.7 19:57:48 10° S 20:03:32 46° ESE 20:09:44 10° NE
CENTAUR R/B 4.1 20:02:36 10° ESE 20:04:16 11° ESE 20:05:41 10° E
Cosmos 2056 Rocket 3.6 20:00:00 10° NNW 20:05:27 89° WSW 20:10:53 10° SSE
Helios 1B rocket 3.0 20:02:08 10° NNE 20:05:55 35° E 20:09:42 10° SSE
Cosmos-2242 3.9 20:05:16 10° SSE 20:08:57 28° E 20:12:41 10° NNE
Cosmos 1484 Rocket 4.1 20:06:37 10° S 20:10:17 45° W 20:14:03 10° NNW
In-Cosmos 22 4.4 20:08:10 10° N 20:13:48 52° ENE 20:19:23 10° SSE
Cosmos 1674 4.3 20:13:34 10° NNE 20:16:05 16° ENE 20:16:57 15° E
NOAA 12 4.1 20:11:50 10° SSE 20:17:05 87° WSW 20:22:25 10° NNW
Atlas Centaur 2 4.4 20:11:44 10° WSW 20:18:46 29° SSW 20:25:24 10° SE
Cosmos 1408 Rocket 3.5 20:16:42 10° N 20:21:01 58° E 20:25:16 10° SSE
Cosmos 2237 Rocket 3.6 20:20:21 10° SW 20:25:41 41° WNW 20:31:03 10° NNE
Cosmos 1346 4.1 20:25:14 10° NNE 20:27:48 25° ENE 20:28:07 25° E
ATLAS CENTAUR R/B 3.1 20:24:24 10° NW 20:28:10 32° WSW 20:31:37 10° S
Cosmos 1766 3.6 20:26:20 10° SSW 20:30:16 68° W 20:34:16 10° N
Aureole 2 Rocket 3.4 20:26:03 10° SSW 20:30:26 68° WNW 20:34:44 10° NNE
Resurs 01 Rocket 1.6 20:28:28 10° SSE 20:32:56 88° ENE 20:37:25 10° NNW
ATLAS 5 CENTAUR R/B 1.8 20:28:41 10° SSW 20:33:21 59° ESE 20:38:25 10° NE
HJ-1C 3.4 20:30:15 10° S 20:33:36 82° WSW 20:37:00 10° NNW
Resurs 1-3 3.5 20:30:09 10° SSE 20:34:31 71° ENE 20:38:54 10° N
USA 215 3.2 20:33:09 10° NE 20:39:43 81° SE 20:46:15 10° SW
Meteor 1-29 2.9 20:40:51 10° NNE 20:44:23 85° ESE 20:47:53 10° SSW
SL-16 R/B 2.7 20:39:17 10° SW 20:44:54 62° WNW 20:50:34 10° NNE
CZ-2D R/B 3.5 20:43:00 24° SE 20:45:04 48° ENE 20:48:51 10° N
Cosmos 1743 Rocket 3.6 20:44:13 10° N 20:48:36 55° E 20:51:26 21° SSE
Cosmos 1953 2.3 20:47:16 10° S 20:51:16 87° W 20:55:16 10° N
ERS-1 Rocket 3.9 20:54:53 26° ENE 20:55:17 27° ENE 20:59:27 10° N
Nadezhda 4 Rocket 3.9 20:50:12 10° N 20:56:30 73° E 21:02:42 10° SSE
Helios 1A 3.7 20:53:13 10° S 20:57:18 54° W 21:01:26 10° NNW
SeaSat 1 2.7 20:54:38 10° NE 20:59:20 42° ESE 21:04:00 10° S
BREEZE-M DEB (TANK) 4.0 20:45:28 10° W 20:59:56 69° N 21:02:28 30° ENE
GP-B 3.6 20:57:23 10° NNE 21:01:21 38° E 21:01:21 38° E
Cosmos 1452 Rocket 3.8 20:56:54 10° NNW 21:02:08 66° WSW 21:07:18 10° S
Cosmos 1805 3.7 20:58:17 10° SSW 21:02:11 64° W 21:06:07 10° N
Cosmos 1092 Rocket 4.0 20:56:20 10° N 21:02:29 59° E 21:06:37 21° SSE
H-2A R/B 2.6 21:01:10 32° SSE 21:02:56 79° ENE 21:06:50 10° N
Cosmos 1544 3.0 21:01:18 10° S 21:05:03 88° WNW 21:08:49 10° N
CZ-4B DEB 3.2 21:06:22 32° S 21:07:42 62° W 21:10:57 10° NNW
ALOS 2.4 21:04:21 10° S 21:09:00 73° WSW 21:13:41 10° NNW
FENGYUN 3A 3.8 21:07:17 10° S 21:12:39 75° WSW 21:18:04 10° NNW
OAO 3 Rocket 4.1 21:08:30 10° WSW 21:12:47 33° S 21:13:21 32° SSE
Cosmos 724 4.3 21:10:29 10° SSW 21:16:24 87° WNW 21:22:32 10° NNE
NOSS 3-2 (A) 4.3 21:10:39 10° WSW 21:16:37 51° NW 21:23:10 10° NNE
Cosmos 1634 Rocket 4.0 21:11:42 10° SSE 21:17:46 56° E 21:23:49 10° NNE
Cosmos 2026 Rocket 4.2 21:12:16 10° N 21:18:03 43° ENE 21:18:46 42° E
Cosmos 1470 3.2 21:24:32 52° NNE 21:24:32 52° NNE 21:27:32 10° N
CZ-4C R/B 4.5 21:19:25 10° W 21:23:48 22° NNW 21:28:36 10° NNE
Cosmos 1420 Rocket 4.1 21:19:56 10° NNW 21:25:14 75° WSW 21:27:35 34° S
Cosmos 2369 Rocket 2.2 21:22:43 10° NNW 21:28:18 58° ENE 21:28:54 55° E
H-2A R/B 4.1 21:31:47 17° NNE 21:31:47 17° NNE 21:33:16 10° NNE
Cosmos 1603 4.0 21:26:23 10° SSW 21:32:05 68° WNW 21:37:51 10° NNE
Cosmos 1943 Rocket 3.2 21:30:55 10° N 21:35:15 30° NE 21:35:15 30° NE
Cosmos 2195 Rocket 4.4 21:33:23 10° N 21:39:44 74° E 21:41:05 56° SE
Cosmos 1269 Rocket 4.4 21:35:36 10° SSW 21:40:49 64° WNW 21:46:06 10° NNE
ASTEX 1 4.4 21:39:33 10° N 21:44:14 46° WNW 21:48:53 10° SSW
Cosmos 1048 Rocket 4.3 21:39:51 10° SSW 21:45:07 68° WNW 21:50:23 10° NNE
Cosmos 1674 4.2 21:48:19 10° NNW 21:51:52 35° W 21:51:56 35° W
Envisat 3.3 21:53:17 59° N 21:53:17 59° N 21:57:29 10° N
CENTAUR R/B 2.3 21:47:26 10° SSW 21:59:44 12° NE 22:00:17 10° NE
Exosat Rocket 4.4 21:47:14 10° NNW 21:53:51 76° ENE 21:55:51 55° SE
Meteor 1-11 4.2 21:49:45 10° N 21:55:14 75° NE 21:55:14 75° NE
Cosmos 2151 4.4 21:58:04 10° NNW 22:00:39 35° NNW 22:00:39 35° NNW
ATLAS 5 CENTAUR R/B 4.0 22:14:24 10° W 22:18:27 25° NW 22:22:49 10° NNE
USA 215 4.4 22:17:38 16° NE 22:22:22 39° NNW 22:28:20 10° W
ERS-1 Rocket 4.4 22:34:54 34° WNW 22:34:54 34° WNW 22:38:34 10° NNW
SeaSat 1 4.2 22:32:28 10° N 22:36:41 29° NW 22:40:53 10° WSW
Cosmos 2369 Rocket 4.4 23:07:46 10° NW 23:10:43 19° W 23:10:43 19° W
Cosmos 1943 Rocket 4.2 23:14:30 10° NW 23:16:47 23° NW 23:16:47 23° NW
CENTAUR R/B 4.4 23:39:25 10° W 23:46:45 25° N 23:50:54 10° NNE
